DW4736 Weather Reports


time (UTC)temp
C
wind
direction
speed
KPH
gust
KPH
rain 1hr
cm
rain 24hr
cm
rain mn
cm
humidity
%
barometer
mb
20260505101400 21 323 0.0 0.0 0.00 0.05 0.05 72 1008.6
20260505100911 20 323 0.0 0.0 0.00 0.05 0.05 73 1008.7
20260505100402 21 323 0.0 0.0 0.00 0.05 0.05 72 1008.8
20260505095859 20 321 0.0 0.0 0.00 0.05 0.05 72 1008.8
20260505095359 20 358 0.0 0.0 0.00 0.05 0.05 74 1008.9
20260505095332 20 106 0.0 0.0 0.00 0.05 0.05 78 1009.1
20260505095102 20 106 0.0 0.0 0.00 0.05 0.05 74 1009.0
20260505093357 19 85 0.0 0.0 0.00 0.05 0.05 80 1009.2
20260505092853 19 85 0.0 0.0 0.00 0.05 0.05 82 1009.2
20260505092838 18 85 0.0 0.0 0.00 0.05 0.05 80 1009.3
20260505091855 19 85 0.0 0.0 0.00 0.05 0.05 82 1009.3
20260505091355 18 85 0.0 0.0 0.00 0.05 0.05 81 1009.4
20260505090851 18 85 0.0 0.0 0.00 0.05 0.05 84 1009.4
20260505090443 18 85 0.0 0.0 0.00 0.05 0.05 85 1009.5
20260505090404 18 85 0.0 0.0 0.00 0.05 0.05 83 1009.4
20260505085349 17 85 0.0 0.0 0.00 0.05 0.05 85 1009.6
20260505085337 17 85 0.0 0.0 0.00 0.05 0.05 87 1009.5
20260505084353 17 85 0.0 0.0 0.00 0.05 0.05 87 1009.5
20260505083848 17 85 0.0 0.0 0.00 0.05 0.05 87 1009.5
20260505083348 17 85 0.0 0.0 0.00 0.05 0.05 87 1009.5
20260505082847 17 85 0.0 0.0 0.00 0.05 0.05 87 1009.6
20260505082347 17 85 0.0 0.0 0.00 0.05 0.05 88 1009.7
20260505081847 17 85 0.0 0.0 0.00 0.05 0.05 88 1009.7
20260505081342 16 85 0.0 0.0 0.00 0.05 0.05 88 1009.7
20260505080842 16 17 0.0 0.0 0.00 0.05 0.05 89 1009.8
20260505080343 16 49 0.0 0.0 0.00 0.05 0.05 89 1009.7
20260505075842 16 82 0.0 0.0 0.00 0.05 0.05 89 1009.8
20260505075340 16 82 0.0 0.0 0.00 0.05 0.05 90 1009.9
20260505074841 16 69 0.0 0.0 0.00 0.05 0.05 90 1009.9
20260505074344 16 69 0.0 0.0 0.00 0.05 0.05 92 1010.0
20260505073844 16 69 0.0 0.0 0.00 0.05 0.05 92 1010.0
20260505073343 16 69 0.0 0.0 0.00 0.05 0.05 93 1010.0
20260505072846 15 69 0.0 0.0 0.00 0.05 0.05 94 1010.0
20260505072347 15 52 0.0 0.0 0.00 0.05 0.05 94 1010.1
20260505071842 15 52 0.0 0.0 0.00 0.05 0.05 94 1010.1
20260505071341 15 52 0.0 0.0 0.03 0.05 0.05 95 1010.2
20260505071042 15 52 0.0 0.0 0.05 0.05 0.05 95 1010.2
20260505070522 15 52 0.0 0.0 0.05 0.05 0.05 95 1010.3
20260505064839 14 52 0.0 0.0 0.05 0.00 0.05 95 1010.3
20260505064334 13 52 0.0 0.0 0.05 0.00 0.05 95 1010.3
20260505063838 13 52 0.0 0.0 0.05 0.00 0.05 95 1010.2
20260505063818 13 52 0.0 0.0 0.05 0.00 0.05 95 1010.2
20260505062835 13 52 0.0 0.0 0.05 0.00 0.05 94 1010.1
20260505062335 13 52 0.0 0.0 0.05 0.00 0.05 94 1010.0
20260505061832 13 52 0.0 0.0 0.05 0.00 0.05 94 1010.1
20260505061333 13 52 0.0 0.0 0.05 0.00 0.05 93 1010.1
20260505060833 13 52 0.0 0.0 0.03 0.00 0.03 93 1010.2
20260505060330 13 52 0.0 0.0 0.00 0.00 0.00 93 1010.3
20260505055830 13 52 0.0 0.0 0.00 0.00 0.00 93 1010.4
20260505055759 13 52 0.0 0.0 0.00 0.00 0.00 92 1010.4
20260505054831 13 52 0.0 0.0 0.00 0.00 0.00 93 1010.3
20260505054331 13 52 0.0 0.0 0.00 0.00 0.00 93 1010.4
20260505053831 13 52 0.0 0.0 0.00 0.00 0.00 93 1010.3
20260505053330 13 52 0.0 0.0 0.00 0.00 0.00 93 1010.2
20260505052828 13 52 0.0 0.0 0.00 0.00 0.00 93 1010.2
20260505052330 13 52 0.0 0.0 0.00 0.00 0.00 93 1010.1
20260505051829 13 52 0.0 0.0 0.00 0.00 0.00 94 1009.9
20260505051327 13 52 0.0 0.0 0.00 0.00 0.00 93 1010.0
20260505050842 13 52 0.0 0.0 0.00 0.00 0.00 94 1009.8
20260505050827 13 52 0.0 0.0 0.00 0.00 0.00 94 1009.9
20260505041320 11 51 0.0 0.0 0.00 0.00 0.00 94 1009.7
20260505040823 11 51 0.0 0.0 0.00 0.00 0.00 94 1009.7
20260505040320 11 51 0.0 0.0 0.00 0.00 0.00 94 1009.8
20260505035820 11 51 0.0 0.0 0.00 0.00 0.00 94 1009.8
20260505035318 11 51 0.0 0.0 0.00 0.00 0.00 94 1009.7
20260505034819 11 51 0.0 0.0 0.00 0.00 0.00 94 1009.9
20260505034322 11 51 0.0 0.0 0.00 0.00 0.00 94 1009.9
20260505034248 11 51 0.0 0.0 0.00 0.00 0.00 94 1009.9
20260505033319 11 51 0.0 0.0 0.00 0.00 0.00 94 1010.0
20260505032820 11 51 0.0 0.0 0.00 0.00 0.00 94 1010.0
20260505032321 11 51 0.0 0.0 0.00 0.00 0.00 94 1010.1
20260505031817 11 51 0.0 0.0 0.00 0.00 0.00 93 1010.1
20260505031528 11 51 0.0 0.0 0.00 0.00 0.00 93 1010.2
20260505030321 11 51 0.0 0.0 0.00 0.00 0.00 93 1010.2
20260505025814 11 51 0.0 0.0 0.00 0.00 0.00 93 1010.2
20260505025312 11 51 0.0 0.0 0.00 0.00 0.00 93 1010.3
20260505025007 12 51 0.0 0.0 0.00 0.00 0.00 93 1010.4
20260505023811 12 51 0.0 0.0 0.00 0.00 0.00 92 1010.5
20260505023312 12 51 0.0 0.0 0.00 0.00 0.00 92 1010.5
20260505022810 12 51 0.0 0.0 0.00 0.00 0.00 92 1010.5
20260505022311 12 51 0.0 0.0 0.00 0.00 0.00 92 1010.6
20260505021809 12 51 0.0 0.0 0.00 0.00 0.00 92 1010.6
20260505021310 13 51 0.0 0.0 0.00 0.00 0.00 92 1010.8
20260505020808 13 51 0.0 0.0 0.00 0.00 0.00 92 1010.8
20260505020305 13 51 0.0 0.0 0.00 0.00 0.00 92 1010.7
20260505015808 13 51 0.0 0.0 0.00 0.00 0.00 91 1010.9
20260505015308 13 51 0.0 0.0 0.00 0.00 0.00 92 1010.8
20260505014808 13 51 0.0 0.0 0.00 0.00 0.00 92 1010.9
20260505014307 13 51 0.0 0.0 0.00 0.00 0.00 92 1010.8
20260505013806 13 51 0.0 0.0 0.00 0.00 0.00 91 1010.9
20260505013303 13 51 0.0 0.0 0.00 0.00 0.00 92 1011.0
20260505012837 13 51 0.0 0.0 0.00 0.00 0.00 92 1011.0
20260505012814 13 51 0.0 0.0 0.00 0.00 0.00 92 1011.0
20260505011805 13 51 0.0 0.0 0.00 0.00 0.00 92 1011.0
20260505011303 13 51 0.0 0.0 0.00 0.00 0.00 91 1011.1
20260505011240 13 51 0.0 0.0 0.00 0.00 0.00 91 1011.2
20260505010304 13 51 0.0 0.0 0.00 0.00 0.00 91 1011.4
20260505005802 13 51 0.0 0.0 0.00 0.00 0.00 91 1011.5
20260505005303 13 51 0.0 0.0 0.00 0.00 0.00 91 1011.5
20260505004802 13 51 0.0 0.0 0.00 0.00 0.00 91 1011.4
20260505004302 13 51 0.0 0.0 0.00 0.00 0.00 91 1011.4
20260505003803 13 51 0.0 0.0 0.00 0.00 0.00 91 1011.3
20260505003307 13 51 0.0 0.0 0.00 0.00 0.00 91 1011.3
20260505002801 13 51 0.0 0.0 0.00 0.00 0.00 91 1011.5
20260505002303 13 51 0.0 0.0 0.00 0.00 0.00 91 1011.5
20260505001802 13 51 0.0 0.0 0.00 0.00 0.00 90 1011.6
20260505001728 13 51 0.0 0.0 0.00 0.00 0.00 90 1011.7
20260505000839 13 51 0.0 0.0 0.00 0.00 0.00 90 1011.8
20260505000811 13 51 0.0 0.0 0.00 0.00 0.00 90 1011.8
20260504235802 13 51 0.0 0.0 0.00 0.00 0.00 90 1011.8
20260504235304 13 51 0.0 0.0 0.00 0.00 0.00 90 1011.8
20260504234805 13 51 0.0 0.0 0.00 0.00 0.00 90 1011.7
20260504234304 13 51 0.0 0.0 0.00 0.00 0.00 90 1011.7
20260504233801 13 51 0.0 0.0 0.00 0.00 0.00 90 1011.7
20260504233301 13 51 0.0 0.0 0.00 0.00 0.00 89 1011.8
20260504232801 13 51 0.0 0.0 0.00 0.00 0.00 89 1011.7
20260504232303 13 51 0.0 0.0 0.00 0.00 0.00 89 1011.9
20260504232243 13 51 0.0 0.0 0.00 0.00 0.00 89 1011.8
20260504231301 13 51 0.0 0.0 0.00 0.00 0.00 89 1011.8
20260504230804 13 51 0.0 0.0 0.00 0.00 0.00 89 1011.9
20260504230303 13 51 0.0 0.0 0.00 0.00 0.00 89 1011.9
20260504225805 13 51 0.0 0.0 0.00 0.00 0.00 89 1011.8
20260504225309 13 51 0.0 0.0 0.00 0.00 0.00 89 1011.7
20260504224804 13 51 0.0 0.0 0.00 0.00 0.00 89 1011.8
20260504224742 13 51 0.0 0.0 0.00 0.00 0.00 88 1011.8
20260504223804 13 51 0.0 0.0 0.00 0.00 0.00 88 1011.8
20260504223307 13 51 0.0 0.0 0.00 0.00 0.00 88 1011.6
20260504223254 13 51 0.0 0.0 0.00 0.00 0.00 89 1011.7
20260504222304 13 51 0.0 0.0 0.00 0.00 0.00 89 1011.6
20260504221805 13 51 0.0 0.0 0.00 0.00 0.00 89 1011.6
20260504221306 13 51 0.0 0.0 0.00 0.00 0.00 89 1011.7
20260504220806 13 51 0.0 0.0 0.00 0.00 0.00 89 1011.9
20260504220749 13 51 0.0 0.0 0.00 0.00 0.00 89 1011.9
20260504220742 13 51 0.0 0.0 0.00 0.00 0.00 88 1012.1
20260504215301 13 51 0.0 0.0 0.00 0.00 0.00 88 1012.1
20260504214804 13 51 0.0 0.0 0.00 0.00 0.00 88 1012.2
20260504214730 13 51 0.0 0.0 0.00 0.00 0.00 88 1012.2
20260504213804 14 51 0.0 0.0 0.00 0.00 0.00 88 1012.3
20260504213301 14 51 0.0 0.0 0.00 0.00 0.00 88 1012.4
20260504212801 14 51 0.0 0.0 0.00 0.00 0.00 87 1012.4
20260504212304 14 51 0.0 0.0 0.00 0.00 0.00 87 1012.5
20260504211801 14 51 0.0 0.0 0.00 0.00 0.00 87 1012.5
20260504211259 14 51 0.0 0.0 0.00 0.00 0.00 87 1012.5
20260504211252 14 51 0.0 0.0 0.00 0.00 0.00 87 1012.6
20260504210322 14 51 0.0 0.0 0.00 0.00 0.00 87 1012.6
20260504205258 14 51 0.0 0.0 0.00 0.00 0.00 86 1012.5
20260504204757 14 51 0.0 0.0 0.00 0.00 0.00 86 1012.6
20260504204301 14 51 0.0 0.0 0.00 0.00 0.00 86 1012.6
20260504203759 14 51 0.0 0.0 0.00 0.00 0.00 86 1012.6
20260504203255 15 51 0.0 0.0 0.00 0.00 0.00 86 1012.6
20260504202753 15 51 0.0 0.0 0.00 0.00 0.00 86 1012.7
20260504202255 15 51 0.0 0.0 0.00 0.00 0.00 85 1012.6
20260504202229 15 51 0.0 0.0 0.00 0.00 0.00 85 1012.5
20260504201258 15 51 0.0 0.0 0.00 0.00 0.00 85 1012.5
20260504200753 15 51 0.0 0.0 0.00 0.00 0.00 84 1012.5
20260504200252 15 51 0.0 0.0 0.00 0.00 0.00 84 1012.6
20260504195745 15 51 0.0 0.0 0.00 0.00 0.00 83 1012.5
20260504195251 15 51 0.0 0.0 0.00 0.00 0.00 83 1012.4
20260504194745 15 51 0.0 0.0 0.00 0.00 0.00 83 1012.3
20260504194245 16 51 0.0 0.0 0.00 0.00 0.00 82 1012.3
20260504193743 16 51 0.0 0.0 0.00 0.00 0.00 82 1012.3
20260504193242 16 51 0.0 0.0 0.00 0.00 0.00 81 1012.4
20260504192744 16 51 0.0 0.0 0.00 0.00 0.00 81 1012.3
20260504192243 16 51 0.0 0.0 0.00 0.00 0.00 80 1012.2
20260504191745 16 51 0.0 0.0 0.00 0.00 0.00 80 1012.3
20260504191244 16 51 0.0 0.0 0.00 0.00 0.00 80 1012.3
20260504191237 16 51 0.0 0.0 0.00 0.00 0.00 79 1012.4
20260504190244 17 51 0.0 0.0 0.00 0.00 0.00 78 1012.3
20260504185737 17 51 0.0 0.0 0.00 0.00 0.00 77 1012.3
20260504185659 17 51 0.0 0.0 0.00 0.00 0.00 77 1012.3
20260504184941 17 51 0.0 0.0 0.00 0.00 0.00 77 1012.2
20260504183732 17 51 0.0 0.0 0.00 0.00 0.00 75 1012.1
20260504183656 17 51 0.0 0.0 0.00 0.00 0.00 75 1012.1
20260504182739 17 51 0.0 0.0 0.00 0.00 0.00 74 1012.1
20260504182230 18 51 0.0 0.0 0.00 0.00 0.00 73 1012.0
20260504181729 18 51 0.0 0.0 0.00 0.00 0.00 73 1012.0
20260504181232 18 51 0.0 0.0 0.00 0.00 0.00 72 1012.1
20260504180739 18 51 0.0 0.0 0.00 0.00 0.00 71 1012.1
20260504180231 18 51 0.0 0.0 0.00 0.00 0.00 69 1012.0
20260504175232 20 51 0.0 0.0 0.00 0.00 0.00 67 1012.0
20260504174731 20 51 0.0 0.0 0.00 0.00 0.00 64 1012.1
20260504174231 20 51 0.0 0.0 0.00 0.00 0.00 60 1011.9
20260504173728 21 51 0.0 0.0 0.00 0.00 0.00 57 1011.9
20260504173254 21 51 0.0 0.0 0.00 0.00 0.00 55 1012.0
20260504173246 21 51 0.0 0.0 0.00 0.00 0.00 57 1012.0
20260504173229 21 51 0.0 0.0 0.00 0.00 0.00 55 1011.9
20260504171722 21 51 0.0 0.0 0.00 0.00 0.00 55 1011.9
20260504171225 21 51 0.0 0.0 0.00 0.00 0.00 55 1011.9
20260504170734 21 51 0.0 0.0 0.00 0.00 0.00 54 1011.9
20260504170225 21 51 0.0 0.0 0.00 0.00 0.00 54 1011.9
20260504160215 22 337 0.0 0.0 0.00 0.00 0.00 52 1012.1
20260504150710 23 324 0.0 0.0 0.00 0.00 0.00 51 1012.1
20260504150211 23 75 0.0 0.0 0.00 0.00 0.00 52 1012.1
20260504140705 23 102 0.0 0.0 0.00 0.00 0.00 51 1012.3
20260504140203 23 355 0.0 0.0 0.00 0.00 0.00 52 1012.3
20260504130708 24 69 0.0 0.0 0.00 0.00 0.00 45 1012.4
20260504130204 24 69 0.0 0.0 0.00 0.00 0.00 44 1012.4
20260504120235 24 93 0.0 0.0 0.00 0.00 0.00 47 1012.6
20260504120209 24 93 0.0 0.0 0.00 0.00 0.00 47 1012.6
20260504110707 23 106 0.0 0.0 0.00 0.00 0.00 46 1013.2
20260504110205 23 106 0.0 0.0 0.00 0.00 0.00 46 1013.3